CAT221 EKCH-EKBI

Flight info

Callsign CAT221
Flight time N/A
Altitude 18000
Route ODDON DCT LOKSA
Aircraft C414/L-SBDFGRY/S

Departure

Time 2026-05-05 19:57
Airport Copenhagen Kastrup Airport (EKCH)

Arrival

Time N/A
Airport Billund Airport (EKBI)
Time Latitude Longitude Altitude Speed Heading
2026-05-05 19:51 55.61929 12.66615 12 ft 0 kts 349°
2026-05-05 19:54 55.61936 12.66599 12 ft 5 kts 269°
2026-05-05 19:54 55.61904 12.66611 12 ft 8 kts 158°
2026-05-05 19:54 55.61852 12.66575 12 ft 12 kts 246°
2026-05-05 19:54 55.61826 12.66428 12 ft 12 kts 237°
2026-05-05 19:55 55.61782 12.66414 12 ft 10 kts 180°
2026-05-05 19:55 55.61722 12.66378 12 ft 9 kts 207°
2026-05-05 19:55 55.61661 12.66262 12 ft 25 kts 239°
2026-05-05 19:55 55.61608 12.66178 13 ft 15 kts 219°
2026-05-05 19:56 55.61636 12.66013 14 ft 27 kts 307°
2026-05-05 19:56 55.61741 12.65747 14 ft 32 kts 307°
2026-05-05 19:56 55.61829 12.65614 13 ft 13 kts 96°
2026-05-05 19:56 55.61891 12.65746 13 ft 29 kts 46°
2026-05-05 19:57 55.62211 12.66267 39 ft 87 kts 42°
2026-05-05 19:57 55.62687 12.67075 308 ft 101 kts 42°
2026-05-05 19:57 55.63166 12.67982 739 ft 99 kts 50°
2026-05-05 19:57 55.63637 12.68945 1048 ft 114 kts 46°
2026-05-05 19:58 55.64213 12.70082 1456 ft 128 kts 46°
2026-05-05 19:58 55.64838 12.71221 1987 ft 128 kts 41°
2026-05-05 19:58 55.65555 12.72359 2302 ft 141 kts 39°
2026-05-05 19:58 55.66482 12.73005 2549 ft 155 kts 10°
2026-05-05 19:59 55.67412 12.72293 2696 ft 171 kts 314°
2026-05-05 19:59 55.68247 12.70905 3192 ft 163 kts 323°
2026-05-05 19:59 55.69142 12.69680 3631 ft 160 kts 324°
2026-05-05 19:59 55.69945 12.68363 4164 ft 159 kts 314°
2026-05-05 20:00 55.70709 12.66870 4474 ft 166 kts 322°
2026-05-05 20:00 55.71699 12.65746 4791 ft 167 kts 335°
2026-05-05 20:00 55.72466 12.64283 5123 ft 172 kts 309°
2026-05-05 20:00 55.73113 12.62594 5677 ft 160 kts 302°
2026-05-05 20:01 55.73842 12.61136 5959 ft 152 kts 326°
2026-05-05 20:01 55.74699 12.60277 6074 ft 134 kts 331°
2026-05-05 20:01 55.75368 12.59354 6348 ft 104 kts 306°
2026-05-05 20:01 55.75568 12.58182 6434 ft 101 kts 261°
2026-05-05 20:02 55.75394 12.56901 6419 ft 103 kts 248°
2026-05-05 20:02 55.75030 12.55723 6398 ft 106 kts 236°
2026-05-05 20:02 55.74626 12.54639 6403 ft 107 kts 244°
2026-05-05 20:02 55.74268 12.53476 6403 ft 108 kts 242°
2026-05-05 20:03 55.73860 12.52333 6396 ft 109 kts 236°
2026-05-05 20:03 55.73447 12.51270 6124 ft 108 kts 243°
2026-05-05 20:03 55.73374 12.51048 6026 ft 113 kts 246°
2026-05-05 20:04 55.73288 12.50754 5917 ft 128 kts 250°
2026-05-05 20:04 55.73141 12.49259 6365 ft 122 kts 277°
2026-05-05 20:05 55.73266 12.47654 6596 ft 137 kts 286°
2026-05-05 20:05 55.73527 12.45940 6726 ft 150 kts 291°
2026-05-05 20:05 55.73849 12.44304 7077 ft 147 kts 295°
2026-05-05 20:05 55.74260 12.42737 7638 ft 125 kts 295°
2026-05-05 20:06 55.74582 12.41314 7953 ft 132 kts 298°
2026-05-05 20:06 55.75200 12.40015 8221 ft 139 kts 324°
2026-05-05 20:06 55.76115 12.39619 8597 ft 147 kts
2026-05-05 20:06 55.76963 12.40838 8606 ft 171 kts 58°
2026-05-05 20:07 55.77411 12.42384 9372 ft 141 kts 68°
2026-05-05 20:07 55.78062 12.43802 9445 ft 151 kts 12°
2026-05-05 20:07 55.78840 12.42866 9313 ft 154 kts 285°
2026-05-05 20:07 55.79091 12.41047 9629 ft 151 kts 285°
2026-05-05 20:08 55.79448 12.39305 9911 ft 150 kts 290°
2026-05-05 20:08 55.79854 12.37581 10145 ft 151 kts 290°
2026-05-05 20:08 55.80259 12.35873 10374 ft 152 kts 290°
2026-05-05 20:08 55.80642 12.34116 10592 ft 152 kts 285°
2026-05-05 20:09 55.80742 12.32261 10810 ft 151 kts 269°